Current weather by "City, St" or "zip code"  
 
Advertise Here

Current Conditions: Clinton Municipal Airport, IA

Overcast


21.0 F

Last Updated on Jan 25 2021, 4:56 am CST
Humidity: 92%
Wind Speed: NE 13.8 mph
Barometer 30.08 in
Dewpoint: 19.0 F
Visibility: 8.00 mi
Precip: --
Heat Index: NA
Wind Chill: 8 F
Current conditions at:

Clinton Municipal Airport, IA (KCWI)

Lat: 41.82954 Lon: 90.33279

Local Radar Image active severe weather and emergency alerts image image weather storm and storm spotter reports image weather observation monitoring service image
Local
Radar
Active
Alerts
Storm Reports Obs
Monitoring

Sign-up For Email & Text Message Weather Alert Notification Services


Advertise Here

Observation History for Clinton Municipal Airport, IA


Time Wind
(mph)
Vis
(mi)
Weather Precip (in) Temperature (F) Relative
Humidity
Wind
Chill
(F)
Heat
Index
(F)
Pressure
Air Dwpt altimeter
(in)
sea level
(mb)
Rmks
4:56 am CST NE 13.8 8.00 Overcast -- 21.0 19.0 92% 8 NA 30.08 1020.0
3:56 am CST NE 10.4 9.00 Partly Cloudy -- 20.0 18.0 92% 9 NA 30.09 1020.1
2:56 am CST NE 10.4 10.00 Partly Cloudy -- 21.0 18.0 88% 10 NA 30.09 1020.3
1:56 am CST NE 9.2 10.00 Overcast -- 23.0 19.9 88% 13 NA 30.13 1021.5
12:56 am CST E 6.9 10.00 Mostly Cloudy -- 24.0 19.9 84% 16 NA 30.12 1021.3
11:56 pm CST E 12.7 10.00 Overcast -- 28.0 24.1 85% 17 NA 30.11 1020.7
10:56 pm CST E 8.1 10.00 Overcast -- 28.0 25.0 88% 20 NA 30.10 1020.4
9:56 pm CST NE 9.2 10.00 Overcast -- 28.0 24.1 85% 19 NA 30.10 1020.6
8:56 pm CST NE 10.4 10.00 Overcast -- 28.0 25.0 88% 19 NA 30.11 1020.8
7:56 pm CST NE 10.4 10.00 Overcast -- 29.0 26.1 89% 20 NA 30.11 1020.7
6:56 pm CST N 9.2 10.00 Overcast -- 29.0 26.1 89% 20 NA 30.12 1021.0
5:56 pm CST N 8.1 10.00 Overcast -- 29.0 27.0 92% 21 NA 30.11 1020.7
4:56 pm CST N 8.1 10.00 Partly Cloudy -- 27.0 25.0 92% 19 NA 30.08 1019.7
3:56 pm CST N 8.1 8.00 Overcast -- 31.0 28.0 89% 24 NA 30.07 1019.6
2:56 pm CST N 8.1 10.00 Overcast -- 32.0 28.0 85% 25 NA 30.06 1019.2
1:56 pm CST N 0.0 10.00 Overcast -- 31.0 28.0 89% NA NA 30.05 1019.0
12:56 pm CST N 0.0 10.00 Overcast -- 31.0 28.0 89% NA NA 30.05 1019.0
11:56 am CST N 0.0 10.00 Overcast -- 38.0 32.0 79% NA NA 30.05 1018.7
10:56 am CST N 0.0 10.00 Overcast -- 36.0 33.1 89% NA NA 30.08 1019.7
9:56 am CST SE 3.5 10.00 Overcast -- 32.0 28.9 88% NA NA 30.07 1019.4
8:56 am CST SE 3.5 10.00 Overcast -- 29.0 27.0 92% NA NA 30.06 1019.3
7:56 am CST SE 8.1 10.00 Overcast -- 28.0 26.1 92% 20 NA 30.04 1018.6
6:56 am CST SE 9.2 10.00 Overcast -- 27.0 26.1 96% 18 NA 30.04 1018.6
5:56 am CST SE 10.4 10.00 Overcast -- 27.0 26.1 96% 17 NA 30.03 1018.4

Regional Weather Observation


Clinton Municipal Airport, IA (KCWI)

Overcast
21.0 F

Dubuque Regional Airport, IA (KDBQ)

Fog/Mist
12.0 F

Davenport Municipal Airport, IA (KDVN)

Overcast
27.0 F

Moline Quad-City Airport, IL (KMLI)

Overcast
29.0 F

Platteville Municipal Airport, WI (KPVB)

Fair
13.0 F

Monticello Regional Airport, IA (KMXO)

Fair
14.0 F